Location: Newark
(38.9311°S, 68.8090°E)
Time: 05:13:58
(UTC+00:00)

ISS - Visible Passes

Search period start: 29 January 2020 00:00
Search period end: 08 February 2020 00:00
Orbit: 415 x 423 km, 51.6° (Epoch: 29 January)

Date Brightness Start Highest point End Pass type
(mag) Time Alt. Az. Time Alt. Az. Time Alt. Az.
29 Jan -2.0 22:02:54 28° E 22:02:54 28° E 22:04:56 10° ESE visible
29 Jan -2.1 23:35:51 11° W 23:38:37 27° SSW 23:41:36 10° SSE visible
30 Jan -2.8 22:50:07 34° WSW 22:50:57 40° SSW 22:54:12 10° SE visible
31 Jan -2.4 22:04:20 40° SSE 22:04:20 40° SSE 22:06:43 10° SE visible
31 Jan -1.2 23:38:32 10° WSW 23:40:38 15° SSW 23:42:46 10° SSE visible
01 Feb -0.7 21:18:31 14° ESE 21:18:31 14° ESE 21:19:07 10° SE visible
01 Feb -1.6 22:51:28 16° SW 22:52:50 20° SSW 22:55:25 10° SSE visible
02 Feb -1.8 22:05:36 26° S 22:05:36 26° S 22:08:03 10° SSE visible
02 Feb -0.8 23:41:52 10° SSW 23:42:48 11° S 23:43:43 10° S visible
03 Feb -0.7 21:19:43 16° SSE 21:19:43 16° SSE 21:20:36 10° SE visible
03 Feb -0.9 22:53:19 10° SW 22:54:53 12° SSW 22:56:27 10° SSE visible
04 Feb -1.1 22:06:45 15° SSW 22:07:00 15° SSW 22:09:07 10° SSE visible
05 Feb -0.6 21:20:50 14° SSE 21:20:50 14° SSE 21:21:45 10° SSE visible
06 Feb -0.7 22:08:08 10° SSW 22:09:04 11° S 22:09:59 10° S visible
06 Feb -0.7 23:45:44 10° SSW 23:47:07 12° SSE 23:48:30 10° SE visible
07 Feb -0.4 21:21:57 12° S 21:21:57 12° S 21:22:41 10° SSE visible
07 Feb -0.5 22:58:27 10° S 22:59:09 10° S 22:59:52 10° SSE visible
